Location: Unspecified
(0.0000°N, 0.0000°E)
Time: 01:04:04
(UTC+00:00)

S-56A Canister/Altair - Pass Details

Date: 20 December 2018
Orbit: 633 x 2500 km, 38.9° (Epoch: 16 January)

Event Time Altitude Azimuth Distance (km) Brightness Sun altitude
Rises 08:51:27 0° 318° (NW) 5,986 11.6 39.2°
Reaches altitude 10° 08:55:18 10° 321° (NW) 5,080 11.4 40.0°
Maximum altitude 09:10:21 68° 42° (NE) 2,571 10.9 43.2°
Drops below altitude 10° 09:23:29 10° 122° (ESE) 4,509 12.5 45.9°
Sets 09:26:39 0° 124° (SE) 5,304 12.5 46.5°
